Year,Month,Day,Hour,Minute,Value (Times are PST for temperature in C)
2021,06,24,00,00,14.60
2021,06,24,00,01,14.60
2021,06,24,00,02,14.60
2021,06,24,00,03,14.60
2021,06,24,00,04,14.60
2021,06,24,00,05,14.60
2021,06,24,00,06,14.60
2021,06,24,00,07,14.50
2021,06,24,00,08,14.50
2021,06,24,00,09,14.50
2021,06,24,00,10,14.50
2021,06,24,00,11,14.50
2021,06,24,00,12,14.50
2021,06,24,00,13,14.50
2021,06,24,00,14,14.50
2021,06,24,00,15,14.50
2021,06,24,00,16,14.50
2021,06,24,00,17,14.50
2021,06,24,00,18,14.50
2021,06,24,00,19,14.50
2021,06,24,00,20,14.50
2021,06,24,00,21,14.40
2021,06,24,00,22,14.50
2021,06,24,00,23,14.40
2021,06,24,00,24,14.50
2021,06,24,00,25,14.40
2021,06,24,00,26,14.40
2021,06,24,00,27,14.40
2021,06,24,00,28,14.40
2021,06,24,00,29,14.40
2021,06,24,00,30,14.40
2021,06,24,00,31,14.40
2021,06,24,00,32,14.40
2021,06,24,00,33,14.40
2021,06,24,00,34,14.30
2021,06,24,00,35,14.30
2021,06,24,00,36,14.30
2021,06,24,00,37,14.30
2021,06,24,00,38,14.30
2021,06,24,00,39,14.30
2021,06,24,00,40,14.30
2021,06,24,00,41,14.30
2021,06,24,00,42,14.30
2021,06,24,00,43,14.30
2021,06,24,00,44,14.30
2021,06,24,00,45,14.30
2021,06,24,00,46,14.20
2021,06,24,00,47,14.20
2021,06,24,00,48,14.20
2021,06,24,00,49,14.20
2021,06,24,00,50,14.20
2021,06,24,00,51,14.20
2021,06,24,00,52,14.20
2021,06,24,00,53,14.20
2021,06,24,00,54,14.20
2021,06,24,00,55,14.20
2021,06,24,00,56,14.20
2021,06,24,00,57,14.20
2021,06,24,00,58,14.20
2021,06,24,00,59,14.20
2021,06,24,01,00,14.20
2021,06,24,01,01,14.20
2021,06,24,01,02,14.20
2021,06,24,01,03,14.20
2021,06,24,01,04,14.20
2021,06,24,01,05,14.20
2021,06,24,01,06,14.20
2021,06,24,01,07,14.20
2021,06,24,01,08,14.20
2021,06,24,01,09,14.20
2021,06,24,01,10,14.20
2021,06,24,01,11,14.20
2021,06,24,01,12,14.20
2021,06,24,01,13,14.10
2021,06,24,01,14,14.10
2021,06,24,01,15,14.10
2021,06,24,01,16,14.10
2021,06,24,01,17,14.10
2021,06,24,01,18,14.10
2021,06,24,01,19,14.10
2021,06,24,01,20,14.10
2021,06,24,01,21,14.10
2021,06,24,01,22,14.10
2021,06,24,01,23,14.10
2021,06,24,01,24,14.10
2021,06,24,01,25,14.10
2021,06,24,01,26,14.10
2021,06,24,01,27,14.10
2021,06,24,01,28,14.10
2021,06,24,01,29,14.10
2021,06,24,01,30,14.10
2021,06,24,01,31,14.00
2021,06,24,01,32,14.00
2021,06,24,01,33,14.00
2021,06,24,01,34,14.00
2021,06,24,01,35,14.00
2021,06,24,01,36,14.00
2021,06,24,01,37,14.00
2021,06,24,01,38,14.00
2021,06,24,01,39,13.90
2021,06,24,01,40,13.90
2021,06,24,01,41,14.00
2021,06,24,01,42,13.90
2021,06,24,01,43,13.90
2021,06,24,01,44,13.90
2021,06,24,01,45,13.90
2021,06,24,01,46,13.90
2021,06,24,01,47,13.90
2021,06,24,01,48,13.90
2021,06,24,01,49,13.90
2021,06,24,01,50,13.90
2021,06,24,01,51,13.90
2021,06,24,01,52,13.90
2021,06,24,01,53,13.90
2021,06,24,01,54,13.90
2021,06,24,01,55,13.90
2021,06,24,01,56,13.90
2021,06,24,01,57,13.90
2021,06,24,01,58,13.90
2021,06,24,01,59,13.90
2021,06,24,02,00,13.90
2021,06,24,02,01,13.90
2021,06,24,02,02,13.80
2021,06,24,02,03,13.80
2021,06,24,02,04,13.80
2021,06,24,02,05,13.80
2021,06,24,02,06,13.80
2021,06,24,02,07,13.80
2021,06,24,02,08,13.80
2021,06,24,02,09,13.80
2021,06,24,02,10,13.80
2021,06,24,02,11,13.80
2021,06,24,02,12,13.80
2021,06,24,02,13,13.80
2021,06,24,02,14,13.80
2021,06,24,02,15,13.80
2021,06,24,02,16,13.80
2021,06,24,02,17,13.80
2021,06,24,02,18,13.80
2021,06,24,02,19,13.80
2021,06,24,02,20,13.80
2021,06,24,02,21,13.80
2021,06,24,02,22,13.80
2021,06,24,02,23,13.80
2021,06,24,02,24,13.80
2021,06,24,02,25,13.80
2021,06,24,02,26,13.70
2021,06,24,02,27,13.70
2021,06,24,02,28,13.70
2021,06,24,02,29,13.70
2021,06,24,02,30,13.70
2021,06,24,02,31,13.70
2021,06,24,02,32,13.70
2021,06,24,02,33,13.70
2021,06,24,02,34,13.70
2021,06,24,02,35,13.70
2021,06,24,02,36,13.70
2021,06,24,02,37,13.70
2021,06,24,02,38,13.70
2021,06,24,02,39,13.70
2021,06,24,02,40,13.70
2021,06,24,02,41,13.70
2021,06,24,02,42,13.70
2021,06,24,02,43,13.70
2021,06,24,02,44,13.70
2021,06,24,02,45,13.70
2021,06,24,02,46,13.80
2021,06,24,02,47,13.80
2021,06,24,02,48,13.70
2021,06,24,02,49,13.70
2021,06,24,02,50,13.70
2021,06,24,02,51,13.70
2021,06,24,02,52,13.70
2021,06,24,02,53,13.70
2021,06,24,02,54,13.70
2021,06,24,02,55,13.70
2021,06,24,02,56,13.70
2021,06,24,02,57,13.70
2021,06,24,02,58,13.70
2021,06,24,02,59,13.70
2021,06,24,03,00,13.70
2021,06,24,03,01,13.70
2021,06,24,03,02,13.70
2021,06,24,03,03,13.70
2021,06,24,03,04,13.70
2021,06,24,03,05,13.70
2021,06,24,03,06,13.70
2021,06,24,03,07,13.60
2021,06,24,03,08,13.60
2021,06,24,03,09,13.60
2021,06,24,03,10,13.60
2021,06,24,03,11,13.60
2021,06,24,03,12,13.60
2021,06,24,03,13,13.60
2021,06,24,03,14,13.60
2021,06,24,03,15,13.60
2021,06,24,03,16,13.60
2021,06,24,03,17,13.60
2021,06,24,03,18,13.60
2021,06,24,03,19,13.60
2021,06,24,03,20,13.60
2021,06,24,03,21,13.50
2021,06,24,03,22,13.50
2021,06,24,03,23,13.50
2021,06,24,03,24,13.50
2021,06,24,03,25,13.50
2021,06,24,03,26,13.50
2021,06,24,03,27,13.50
2021,06,24,03,28,13.50
2021,06,24,03,29,13.50
2021,06,24,03,30,13.50
2021,06,24,03,31,13.50
2021,06,24,03,32,13.50
2021,06,24,03,33,13.50
2021,06,24,03,34,13.50
2021,06,24,03,35,13.50
2021,06,24,03,36,13.50
2021,06,24,03,37,13.50
2021,06,24,03,38,13.50
2021,06,24,03,39,13.50
2021,06,24,03,40,13.40
2021,06,24,03,41,13.40
2021,06,24,03,42,13.40
2021,06,24,03,43,13.40
2021,06,24,03,44,13.40
2021,06,24,03,45,13.40
2021,06,24,03,46,13.40
2021,06,24,03,47,13.40
2021,06,24,03,48,13.40
2021,06,24,03,49,13.40
2021,06,24,03,50,13.40
2021,06,24,03,51,13.40
2021,06,24,03,52,13.40
2021,06,24,03,53,13.40
2021,06,24,03,54,13.40
2021,06,24,03,55,13.40
2021,06,24,03,56,13.40
2021,06,24,03,57,13.30
2021,06,24,03,58,13.30
2021,06,24,03,59,13.30
2021,06,24,04,00,13.30
2021,06,24,04,01,13.30
2021,06,24,04,02,13.30
2021,06,24,04,03,13.30
2021,06,24,04,04,13.30
2021,06,24,04,05,13.30
2021,06,24,04,06,13.30
2021,06,24,04,07,13.30
2021,06,24,04,08,13.30
2021,06,24,04,09,13.30
2021,06,24,04,10,13.30
2021,06,24,04,11,13.30
2021,06,24,04,12,13.30
2021,06,24,04,13,13.30
2021,06,24,04,14,13.30
2021,06,24,04,15,13.30
2021,06,24,04,16,13.30
2021,06,24,04,17,13.30
2021,06,24,04,18,13.30
2021,06,24,04,19,13.30
2021,06,24,04,20,13.30
2021,06,24,04,21,13.20
2021,06,24,04,22,13.20
2021,06,24,04,23,13.20
2021,06,24,04,24,13.20
2021,06,24,04,25,13.20
2021,06,24,04,26,13.20
2021,06,24,04,27,13.20
2021,06,24,04,28,13.20
2021,06,24,04,29,13.20
2021,06,24,04,30,13.20
2021,06,24,04,31,13.20
2021,06,24,04,32,13.20
2021,06,24,04,33,13.20
2021,06,24,04,34,13.20
2021,06,24,04,35,13.20
2021,06,24,04,36,13.20
2021,06,24,04,37,13.20
2021,06,24,04,38,13.20
2021,06,24,04,39,13.20
2021,06,24,04,40,13.20
2021,06,24,04,41,13.20
2021,06,24,04,42,13.20
2021,06,24,04,43,13.20
2021,06,24,04,44,13.20
2021,06,24,04,45,13.20
2021,06,24,04,46,13.20
2021,06,24,04,47,13.20
2021,06,24,04,48,13.20
2021,06,24,04,49,13.20
2021,06,24,04,50,13.20
2021,06,24,04,51,13.20
2021,06,24,04,52,13.20
2021,06,24,04,53,13.20
2021,06,24,04,54,13.20
2021,06,24,04,55,13.20
2021,06,24,04,56,13.20
2021,06,24,04,57,13.20
2021,06,24,04,58,13.20
2021,06,24,04,59,13.20
2021,06,24,05,00,13.20
2021,06,24,05,01,13.20
2021,06,24,05,02,13.20
2021,06,24,05,03,13.20
2021,06,24,05,04,13.20
2021,06,24,05,05,13.20
2021,06,24,05,06,13.20
2021,06,24,05,07,13.30
2021,06,24,05,08,13.30
2021,06,24,05,09,13.30
2021,06,24,05,10,13.30
2021,06,24,05,11,13.30
2021,06,24,05,12,13.30
2021,06,24,05,13,13.30
2021,06,24,05,14,13.30
2021,06,24,05,15,13.40
2021,06,24,05,16,13.40
2021,06,24,05,17,13.40
2021,06,24,05,18,13.50
2021,06,24,05,19,13.50
2021,06,24,05,20,13.50
2021,06,24,05,21,13.50
2021,06,24,05,22,13.60
2021,06,24,05,23,13.60
2021,06,24,05,24,13.60
2021,06,24,05,25,13.60
2021,06,24,05,26,13.60
2021,06,24,05,27,13.60
2021,06,24,05,28,13.70
2021,06,24,05,29,13.70
2021,06,24,05,30,13.70
2021,06,24,05,31,13.80
2021,06,24,05,32,13.80
2021,06,24,05,33,13.80
2021,06,24,05,34,13.80
2021,06,24,05,35,13.80
2021,06,24,05,36,13.80
2021,06,24,05,37,13.80
2021,06,24,05,38,13.80
2021,06,24,05,39,13.80
2021,06,24,05,40,13.80
2021,06,24,05,41,13.80
2021,06,24,05,42,13.80
2021,06,24,05,43,13.80
2021,06,24,05,44,13.80
2021,06,24,05,45,13.90
2021,06,24,05,46,13.90
2021,06,24,05,47,13.90
2021,06,24,05,48,13.90
2021,06,24,05,49,13.90
2021,06,24,05,50,13.90
2021,06,24,05,51,13.90
2021,06,24,05,52,14.00
2021,06,24,05,53,14.00
2021,06,24,05,54,14.10
2021,06,24,05,55,14.10
2021,06,24,05,56,14.20
2021,06,24,05,57,14.20
2021,06,24,05,58,14.30
2021,06,24,05,59,14.30
2021,06,24,06,00,14.30
2021,06,24,06,01,14.30
2021,06,24,06,02,14.30
2021,06,24,06,03,14.30
2021,06,24,06,04,14.40
2021,06,24,06,05,14.40
2021,06,24,06,06,14.50
2021,06,24,06,07,14.50
2021,06,24,06,08,14.60
2021,06,24,06,09,14.60
2021,06,24,06,10,14.60
2021,06,24,06,11,14.70
2021,06,24,06,12,14.70
2021,06,24,06,13,14.80
2021,06,24,06,14,14.80
2021,06,24,06,15,14.80
2021,06,24,06,16,14.90
2021,06,24,06,17,14.90
2021,06,24,06,18,15.00
2021,06,24,06,19,15.10
2021,06,24,06,20,15.10
2021,06,24,06,21,15.20
2021,06,24,06,22,15.30
2021,06,24,06,23,15.30
2021,06,24,06,24,15.40
2021,06,24,06,25,15.50
2021,06,24,06,26,15.50
2021,06,24,06,27,15.60
2021,06,24,06,28,15.70
2021,06,24,06,29,15.70
2021,06,24,06,30,15.80
2021,06,24,06,31,15.80
2021,06,24,06,32,15.90
2021,06,24,06,33,15.90
2021,06,24,06,34,16.00
2021,06,24,06,35,16.00
2021,06,24,06,36,16.10
2021,06,24,06,37,16.20
2021,06,24,06,38,16.30
2021,06,24,06,39,16.40
2021,06,24,06,40,16.40
2021,06,24,06,41,16.50
2021,06,24,06,42,16.60
2021,06,24,06,43,16.70
2021,06,24,06,44,16.80
2021,06,24,06,45,16.90
2021,06,24,06,46,17.00
2021,06,24,06,47,17.00
2021,06,24,06,48,17.10
2021,06,24,06,49,17.10
2021,06,24,06,50,17.10
2021,06,24,06,51,17.10
2021,06,24,06,52,17.20
2021,06,24,06,53,17.30
2021,06,24,06,54,17.30
2021,06,24,06,55,17.40
2021,06,24,06,56,17.50
2021,06,24,06,57,17.50
2021,06,24,06,58,17.50
2021,06,24,06,59,17.50
2021,06,24,07,00,17.60
2021,06,24,07,01,17.70
2021,06,24,07,02,17.80
2021,06,24,07,03,17.90
2021,06,24,07,04,18.00
2021,06,24,07,05,18.10
2021,06,24,07,06,18.10
2021,06,24,07,07,18.20
2021,06,24,07,08,18.30
2021,06,24,07,09,18.30
2021,06,24,07,10,18.40
2021,06,24,07,11,18.40
2021,06,24,07,12,18.50
2021,06,24,07,13,18.50
2021,06,24,07,14,18.60
2021,06,24,07,15,18.60
2021,06,24,07,16,18.60
2021,06,24,07,17,18.60
2021,06,24,07,18,18.70
2021,06,24,07,19,18.70
2021,06,24,07,20,18.70
2021,06,24,07,21,18.70
2021,06,24,07,22,18.80
2021,06,24,07,23,18.80
2021,06,24,07,24,18.80
2021,06,24,07,25,18.80
2021,06,24,07,26,18.80
2021,06,24,07,27,18.80
2021,06,24,07,28,18.90
2021,06,24,07,29,18.90
2021,06,24,07,30,18.90
2021,06,24,07,31,18.90
2021,06,24,07,32,18.90
2021,06,24,07,33,19.00
2021,06,24,07,34,19.00
2021,06,24,07,35,19.10
2021,06,24,07,36,19.20
2021,06,24,07,37,19.20
2021,06,24,07,38,19.20
2021,06,24,07,39,19.20
2021,06,24,07,40,19.30
2021,06,24,07,41,19.30
2021,06,24,07,42,19.40
2021,06,24,07,43,19.50
2021,06,24,07,44,19.60
2021,06,24,07,45,19.70
2021,06,24,07,46,19.80
2021,06,24,07,47,19.80
2021,06,24,07,48,19.90
2021,06,24,07,49,19.90
2021,06,24,07,50,19.90
2021,06,24,07,51,19.80
2021,06,24,07,52,19.80
2021,06,24,07,53,19.80
2021,06,24,07,54,19.90
2021,06,24,07,55,19.90
2021,06,24,07,56,19.90
2021,06,24,07,57,20.00
2021,06,24,07,58,20.00
2021,06,24,07,59,20.10
2021,06,24,08,00,20.10
2021,06,24,08,01,20.20
2021,06,24,08,02,20.20
2021,06,24,08,03,20.30
2021,06,24,08,04,20.30
2021,06,24,08,05,20.40
2021,06,24,08,06,20.40
2021,06,24,08,07,20.40
2021,06,24,08,08,20.40
2021,06,24,08,09,20.40
2021,06,24,08,10,20.50
2021,06,24,08,11,20.50
2021,06,24,08,12,20.60
2021,06,24,08,13,20.60
2021,06,24,08,14,20.60
2021,06,24,08,15,20.60
2021,06,24,08,16,20.50
2021,06,24,08,17,20.50
2021,06,24,08,18,20.50
2021,06,24,08,19,20.40
2021,06,24,08,20,20.40
2021,06,24,08,21,20.40
2021,06,24,08,22,20.40
2021,06,24,08,23,20.40
2021,06,24,08,24,20.50
2021,06,24,08,25,20.50
2021,06,24,08,26,20.50
2021,06,24,08,27,20.60
2021,06,24,08,28,20.60
2021,06,24,08,29,20.60
2021,06,24,08,30,20.60
2021,06,24,08,31,20.70
2021,06,24,08,32,20.70
2021,06,24,08,33,20.80
2021,06,24,08,34,20.90
2021,06,24,08,35,21.00
2021,06,24,08,36,21.10
2021,06,24,08,37,21.10
2021,06,24,08,38,21.20
2021,06,24,08,39,21.20
2021,06,24,08,40,21.20
2021,06,24,08,41,21.30
2021,06,24,08,42,21.30
2021,06,24,08,43,21.40
2021,06,24,08,44,21.40
2021,06,24,08,45,21.50
2021,06,24,08,46,21.50
2021,06,24,08,47,21.60
2021,06,24,08,48,21.60
2021,06,24,08,49,21.60
2021,06,24,08,50,21.60
2021,06,24,08,51,21.60
2021,06,24,08,52,21.60
2021,06,24,08,53,21.60
2021,06,24,08,54,21.60
2021,06,24,08,55,21.60
2021,06,24,08,56,21.60
2021,06,24,08,57,21.70
2021,06,24,08,58,21.80
2021,06,24,08,59,21.80
2021,06,24,09,00,21.80
2021,06,24,09,01,21.70
2021,06,24,09,02,21.60
2021,06,24,09,03,21.60
2021,06,24,09,04,21.50
2021,06,24,09,05,21.50
2021,06,24,09,06,21.40
2021,06,24,09,07,21.30
2021,06,24,09,08,21.30
2021,06,24,09,09,21.30
2021,06,24,09,10,21.30
2021,06,24,09,11,21.30
2021,06,24,09,12,21.40
2021,06,24,09,13,21.40
2021,06,24,09,14,21.40
2021,06,24,09,15,21.40
2021,06,24,09,16,21.40
2021,06,24,09,17,21.40
2021,06,24,09,18,21.30
2021,06,24,09,19,21.30
2021,06,24,09,20,21.30
2021,06,24,09,21,21.20
2021,06,24,09,22,21.20
2021,06,24,09,23,21.10
2021,06,24,09,24,21.10
2021,06,24,09,25,21.10
2021,06,24,09,26,21.20
2021,06,24,09,27,21.30
2021,06,24,09,28,21.40
2021,06,24,09,29,21.50
2021,06,24,09,30,21.60
2021,06,24,09,31,21.70
2021,06,24,09,32,21.80
2021,06,24,09,33,21.80
2021,06,24,09,34,21.90
2021,06,24,09,35,22.00
2021,06,24,09,36,22.20
2021,06,24,09,37,22.20
2021,06,24,09,38,22.30
2021,06,24,09,39,22.40
2021,06,24,09,40,22.40
2021,06,24,09,41,22.50
2021,06,24,09,42,22.60
2021,06,24,09,43,22.70
2021,06,24,09,44,22.70
2021,06,24,09,45,22.70
2021,06,24,09,46,22.70
2021,06,24,09,47,22.70
2021,06,24,09,48,22.70
2021,06,24,09,49,22.50
2021,06,24,09,50,22.40
2021,06,24,09,51,22.30
2021,06,24,09,52,22.30
2021,06,24,09,53,22.20
2021,06,24,09,54,22.10
2021,06,24,09,55,22.10
2021,06,24,09,56,22.10
2021,06,24,09,57,22.10
2021,06,24,09,58,22.00
2021,06,24,09,59,21.90
2021,06,24,10,00,21.90
2021,06,24,10,01,21.90
2021,06,24,10,02,21.90
2021,06,24,10,03,21.70
2021,06,24,10,04,21.70
2021,06,24,10,05,21.60
2021,06,24,10,06,21.50
2021,06,24,10,07,21.40
2021,06,24,10,08,21.40
2021,06,24,10,09,21.30
2021,06,24,10,10,21.30
2021,06,24,10,11,21.30
2021,06,24,10,12,21.40
2021,06,24,10,13,21.40
2021,06,24,10,14,21.50
2021,06,24,10,15,21.60
2021,06,24,10,16,21.70
2021,06,24,10,17,21.80
2021,06,24,10,18,21.80
2021,06,24,10,19,21.80
2021,06,24,10,20,21.70
2021,06,24,10,21,21.60
2021,06,24,10,22,21.70
2021,06,24,10,23,21.80
2021,06,24,10,24,21.90
2021,06,24,10,25,22.00
2021,06,24,10,26,22.00
2021,06,24,10,27,22.10
2021,06,24,10,28,22.10
2021,06,24,10,29,21.90
2021,06,24,10,30,21.70
2021,06,24,10,31,21.60
2021,06,24,10,32,21.60
2021,06,24,10,33,21.50
2021,06,24,10,34,21.50
2021,06,24,10,35,21.50
2021,06,24,10,36,21.40
2021,06,24,10,37,21.40
2021,06,24,10,38,21.40
2021,06,24,10,39,21.40
2021,06,24,10,40,21.50
2021,06,24,10,41,21.60
2021,06,24,10,42,21.70
2021,06,24,10,43,21.70
2021,06,24,10,44,21.70
2021,06,24,10,45,21.80
2021,06,24,10,46,21.80
2021,06,24,10,47,22.00
2021,06,24,10,48,22.10
2021,06,24,10,49,22.10
2021,06,24,10,50,22.00
2021,06,24,10,51,21.90
2021,06,24,10,52,21.80
2021,06,24,10,53,21.80
2021,06,24,10,54,21.70
2021,06,24,10,55,21.70
2021,06,24,10,56,21.70
2021,06,24,10,57,21.70
2021,06,24,10,58,21.80
2021,06,24,10,59,21.90
2021,06,24,11,00,22.00
2021,06,24,11,01,22.20
2021,06,24,11,02,22.40
2021,06,24,11,03,22.50
2021,06,24,11,04,22.40
2021,06,24,11,05,22.40
2021,06,24,11,06,22.20
2021,06,24,11,07,22.00
2021,06,24,11,08,22.00
2021,06,24,11,09,22.10
2021,06,24,11,10,22.10
2021,06,24,11,11,22.10
2021,06,24,11,12,22.20
2021,06,24,11,13,22.30
2021,06,24,11,14,22.30
2021,06,24,11,15,22.30
2021,06,24,11,16,22.30
2021,06,24,11,17,22.40
2021,06,24,11,18,22.40
2021,06,24,11,19,22.40
2021,06,24,11,20,22.40
2021,06,24,11,21,22.40
2021,06,24,11,22,22.30
2021,06,24,11,23,22.20
2021,06,24,11,24,22.00
2021,06,24,11,25,21.80
2021,06,24,11,26,21.70
2021,06,24,11,27,21.70
2021,06,24,11,28,21.70
2021,06,24,11,29,21.80
2021,06,24,11,30,21.80
2021,06,24,11,31,22.00
2021,06,24,11,32,22.00
2021,06,24,11,33,22.10
2021,06,24,11,34,22.10
2021,06,24,11,35,22.10
2021,06,24,11,36,22.00
2021,06,24,11,37,21.90
2021,06,24,11,38,21.90
2021,06,24,11,39,21.90
2021,06,24,11,40,21.90
2021,06,24,11,41,21.90
2021,06,24,11,42,21.90
2021,06,24,11,43,21.90
2021,06,24,11,44,22.00
2021,06,24,11,45,22.00
2021,06,24,11,46,21.90
2021,06,24,11,47,21.90
2021,06,24,11,48,21.80
2021,06,24,11,49,21.70
2021,06,24,11,50,21.70
2021,06,24,11,51,21.70
2021,06,24,11,52,21.80
2021,06,24,11,53,21.80
2021,06,24,11,54,21.80
2021,06,24,11,55,22.00
2021,06,24,11,56,22.10
2021,06,24,11,57,22.10
2021,06,24,11,58,22.20
2021,06,24,11,59,22.20
2021,06,24,12,00,22.40
2021,06,24,12,01,22.60
2021,06,24,12,02,22.80
2021,06,24,12,03,22.90
2021,06,24,12,04,23.00
2021,06,24,12,05,23.00
2021,06,24,12,06,23.10
2021,06,24,12,07,23.30
2021,06,24,12,08,23.40
2021,06,24,12,09,23.60
2021,06,24,12,10,23.70
2021,06,24,12,11,23.70
2021,06,24,12,12,23.80
2021,06,24,12,13,23.70
2021,06,24,12,14,23.70
2021,06,24,12,15,23.70
2021,06,24,12,16,23.70
2021,06,24,12,17,23.70
2021,06,24,12,18,23.70
2021,06,24,12,19,23.60
2021,06,24,12,20,23.60
2021,06,24,12,21,23.60
2021,06,24,12,22,23.60
2021,06,24,12,23,23.50
2021,06,24,12,24,23.50
2021,06,24,12,25,23.50
2021,06,24,12,26,23.50
2021,06,24,12,27,23.60
2021,06,24,12,28,23.70
2021,06,24,12,29,23.70
2021,06,24,12,30,23.80
2021,06,24,12,31,23.90
2021,06,24,12,32,23.90
2021,06,24,12,33,23.80
2021,06,24,12,34,23.70
2021,06,24,12,35,23.60
2021,06,24,12,36,23.50
2021,06,24,12,37,23.50
2021,06,24,12,38,23.50
2021,06,24,12,39,23.60
2021,06,24,12,40,23.60
2021,06,24,12,41,23.60
2021,06,24,12,42,23.60
2021,06,24,12,43,23.60
2021,06,24,12,44,23.50
2021,06,24,12,45,23.40
2021,06,24,12,46,23.30
2021,06,24,12,47,23.30
2021,06,24,12,48,23.20
2021,06,24,12,49,23.20
2021,06,24,12,50,23.20
2021,06,24,12,51,23.10
2021,06,24,12,52,23.10
2021,06,24,12,53,23.10
2021,06,24,12,54,23.10
2021,06,24,12,55,23.10
2021,06,24,12,56,23.10
2021,06,24,12,57,23.20
2021,06,24,12,58,23.30
2021,06,24,12,59,23.40
2021,06,24,13,00,23.50
2021,06,24,13,01,23.60
2021,06,24,13,02,23.70
2021,06,24,13,03,23.80
2021,06,24,13,04,23.90
2021,06,24,13,05,24.00
2021,06,24,13,06,24.10
2021,06,24,13,07,24.00
2021,06,24,13,08,23.80
2021,06,24,13,09,23.60
2021,06,24,13,10,23.50
2021,06,24,13,11,23.50
2021,06,24,13,12,23.40
2021,06,24,13,13,23.30
2021,06,24,13,14,23.30
2021,06,24,13,15,23.30
2021,06,24,13,16,23.30
2021,06,24,13,17,23.30
2021,06,24,13,18,23.10
2021,06,24,13,19,23.00
2021,06,24,13,20,22.80
2021,06,24,13,21,22.80
2021,06,24,13,22,22.90
2021,06,24,13,23,23.00
2021,06,24,13,24,23.10
2021,06,24,13,25,23.20
2021,06,24,13,26,23.10
2021,06,24,13,27,23.10
2021,06,24,13,28,23.10
2021,06,24,13,29,23.10
2021,06,24,13,30,23.10
2021,06,24,13,31,23.20
2021,06,24,13,32,23.30
2021,06,24,13,33,23.40
2021,06,24,13,34,23.50
2021,06,24,13,35,23.60
2021,06,24,13,36,23.60
2021,06,24,13,37,23.70
2021,06,24,13,38,23.80
2021,06,24,13,39,23.90
2021,06,24,13,40,24.00
2021,06,24,13,41,24.10
2021,06,24,13,42,24.10
2021,06,24,13,43,24.20
2021,06,24,13,44,24.30
2021,06,24,13,45,24.30
2021,06,24,13,46,24.40
2021,06,24,13,47,24.30
2021,06,24,13,48,24.30
2021,06,24,13,49,24.30
2021,06,24,13,50,24.30
2021,06,24,13,51,24.20
2021,06,24,13,52,24.10
2021,06,24,13,53,24.10
2021,06,24,13,54,24.20
2021,06,24,13,55,24.20
2021,06,24,13,56,24.30
2021,06,24,13,57,24.40
2021,06,24,13,58,24.60
2021,06,24,13,59,24.70
2021,06,24,14,00,24.80
2021,06,24,14,01,25.00
2021,06,24,14,02,25.20
2021,06,24,14,03,25.30
2021,06,24,14,04,25.40
2021,06,24,14,05,25.60
2021,06,24,14,06,25.60
2021,06,24,14,07,25.70
2021,06,24,14,08,25.60
2021,06,24,14,09,25.60
2021,06,24,14,10,25.60
2021,06,24,14,11,25.70
2021,06,24,14,12,25.70
2021,06,24,14,13,25.80
2021,06,24,14,14,25.80
2021,06,24,14,15,25.90
2021,06,24,14,16,26.10
2021,06,24,14,17,26.20
2021,06,24,14,18,26.40
2021,06,24,14,19,26.40
2021,06,24,14,20,26.40
2021,06,24,14,21,26.40
2021,06,24,14,22,26.50
2021,06,24,14,23,26.50
2021,06,24,14,24,26.50
2021,06,24,14,25,26.40
2021,06,24,14,26,26.30
2021,06,24,14,27,26.10
2021,06,24,14,28,26.00
2021,06,24,14,29,25.90
2021,06,24,14,30,26.00
2021,06,24,14,31,26.10
2021,06,24,14,32,26.20
2021,06,24,14,33,26.30
2021,06,24,14,34,26.50
2021,06,24,14,35,26.60
2021,06,24,14,36,26.60
2021,06,24,14,37,26.80
2021,06,24,14,38,26.80
2021,06,24,14,39,26.80
2021,06,24,14,40,26.80
2021,06,24,14,41,26.90
2021,06,24,14,42,26.90
2021,06,24,14,43,26.90
2021,06,24,14,44,26.90
2021,06,24,14,45,26.90
2021,06,24,14,46,26.90
2021,06,24,14,47,26.90
2021,06,24,14,48,27.00
2021,06,24,14,49,27.10
2021,06,24,14,50,27.10
2021,06,24,14,51,27.20
2021,06,24,14,52,27.20
2021,06,24,14,53,27.10
2021,06,24,14,54,27.00
2021,06,24,14,55,27.00
2021,06,24,14,56,27.00
2021,06,24,14,57,27.10
2021,06,24,14,58,27.20
2021,06,24,14,59,27.20
2021,06,24,15,00,27.20
2021,06,24,15,01,27.10
2021,06,24,15,02,27.10
2021,06,24,15,03,27.00
2021,06,24,15,04,26.90
2021,06,24,15,05,26.80
2021,06,24,15,06,26.80
2021,06,24,15,07,26.80
2021,06,24,15,08,26.80
2021,06,24,15,09,26.70
2021,06,24,15,10,26.70
2021,06,24,15,11,26.60
2021,06,24,15,12,26.60
2021,06,24,15,13,26.60
2021,06,24,15,14,26.60
2021,06,24,15,15,26.60
2021,06,24,15,16,26.50
2021,06,24,15,17,26.50
2021,06,24,15,18,26.50
2021,06,24,15,19,26.50
2021,06,24,15,20,26.50
2021,06,24,15,21,26.60
2021,06,24,15,22,26.70
2021,06,24,15,23,26.70
2021,06,24,15,24,26.60
2021,06,24,15,25,26.70
2021,06,24,15,26,26.70
2021,06,24,15,27,26.70
2021,06,24,15,28,26.60
2021,06,24,15,29,26.60
2021,06,24,15,30,26.60
2021,06,24,15,31,26.70
2021,06,24,15,32,26.80
2021,06,24,15,33,26.70
2021,06,24,15,34,26.60
2021,06,24,15,35,26.60
2021,06,24,15,36,26.60
2021,06,24,15,37,26.70
2021,06,24,15,38,26.80
2021,06,24,15,39,26.80
2021,06,24,15,40,27.00
2021,06,24,15,41,27.10
2021,06,24,15,42,27.30
2021,06,24,15,43,27.40
2021,06,24,15,44,27.40
2021,06,24,15,45,27.40
2021,06,24,15,46,27.30
2021,06,24,15,47,27.30
2021,06,24,15,48,27.40
2021,06,24,15,49,27.40
2021,06,24,15,50,27.40
2021,06,24,15,51,27.50
2021,06,24,15,52,27.60
2021,06,24,15,53,27.40
2021,06,24,15,54,27.20
2021,06,24,15,55,26.90
2021,06,24,15,56,26.70
2021,06,24,15,57,26.60
2021,06,24,15,58,26.40
2021,06,24,15,59,26.30
2021,06,24,16,00,26.20
2021,06,24,16,01,26.10
2021,06,24,16,02,25.90
2021,06,24,16,03,25.70
2021,06,24,16,04,25.60
2021,06,24,16,05,25.70
2021,06,24,16,06,25.70
2021,06,24,16,07,25.80
2021,06,24,16,08,25.90
2021,06,24,16,09,26.00
2021,06,24,16,10,26.10
2021,06,24,16,11,26.30
2021,06,24,16,12,26.30
2021,06,24,16,13,26.30
2021,06,24,16,14,26.40
2021,06,24,16,15,26.50
2021,06,24,16,16,26.60
2021,06,24,16,17,26.70
2021,06,24,16,18,26.80
2021,06,24,16,19,26.90
2021,06,24,16,20,27.00
2021,06,24,16,21,27.10
2021,06,24,16,22,27.10
2021,06,24,16,23,27.20
2021,06,24,16,24,27.30
2021,06,24,16,25,27.40
2021,06,24,16,26,27.50
2021,06,24,16,27,27.60
2021,06,24,16,28,27.50
2021,06,24,16,29,27.30
2021,06,24,16,30,27.10
2021,06,24,16,31,27.00
2021,06,24,16,32,26.90
2021,06,24,16,33,26.90
2021,06,24,16,34,26.90
2021,06,24,16,35,27.00
2021,06,24,16,36,27.10
2021,06,24,16,37,27.20
2021,06,24,16,38,27.30
2021,06,24,16,39,27.50
2021,06,24,16,40,27.60
2021,06,24,16,41,27.70
2021,06,24,16,42,27.80
2021,06,24,16,43,27.80
2021,06,24,16,44,27.90
2021,06,24,16,45,28.00
2021,06,24,16,46,28.10
2021,06,24,16,47,28.10
2021,06,24,16,48,28.00
2021,06,24,16,49,28.00
2021,06,24,16,50,27.90
2021,06,24,16,51,27.90
2021,06,24,16,52,27.80
2021,06,24,16,53,27.70
2021,06,24,16,54,27.70
2021,06,24,16,55,27.60
2021,06,24,16,56,27.60
2021,06,24,16,57,27.50
2021,06,24,16,58,27.50
2021,06,24,16,59,27.50
2021,06,24,17,00,27.50
2021,06,24,17,01,27.50
2021,06,24,17,02,27.60
2021,06,24,17,03,27.60
2021,06,24,17,04,27.60
2021,06,24,17,05,27.70
2021,06,24,17,06,27.70
2021,06,24,17,07,27.80
2021,06,24,17,08,27.80
2021,06,24,17,09,27.80
2021,06,24,17,10,27.80
2021,06,24,17,11,27.80
2021,06,24,17,12,27.80
2021,06,24,17,13,27.90
2021,06,24,17,14,27.90
2021,06,24,17,15,27.90
2021,06,24,17,16,27.90
2021,06,24,17,17,27.90
2021,06,24,17,18,27.90
2021,06,24,17,19,27.90